Starlink 11207

operational
NORAD ID: 60933 Int'l Des: 2024-155 Owner: SPXS Country: US Constellation: starlink
LEOCIRCULAR

About Starlink 11207

Description loading...

Live Position

Loading 3D Globe...

Upcoming Passes

Altitude History

Altitude vs Time

uPlot chart will show altitude changes over time

Two-Line Element Set

1 60933U 24155K 26037.54061291 -.00000984 00000-0 -32733-5 0 9990
2 60933 53.1573 134.5427 0000903 87.8543 272.2578 15.69684649 83518
Epoch: Feb 6, 2026 • Age: 8 hours

Current Status

Altitude 360.6 km
Velocity 7.69 km/s
Sub-Earth Point 0.66°N, 47.19°E
Launch Date Aug 31, 2024
Age 1.4 years
Type internet

Technical Details

Classification Payload
Mass 960.00 kg
Dry Mass 910.00 kg
Total Mass 960.00 kg
Length 0.30 m
Diameter 4.10 m
Span 29.00 m
Shape Box + pan
Manufacturer SPXS
Bus Type Starlink V2MD
Phase Status In Orbit
Owner/State SPXS/US

Large Constellations

Loading constellations...